[Iaude] MPEC Q149: 2020 QV3 [a=1.13,e=0.32,i=25.0,H=24.9]

mpec at marsden.cfa.harvard.edu mpec at marsden.cfa.harvard.edu
Fri Aug 21 13:37:23 EDT 2020


M.P.E.C. 2020-Q149                              Issued 2020 August 21, 17:36 UT

     The Minor Planet Electronic Circulars contain information on unusual
         minor planets and routine data on comets.  They are published
    on behalf of Division F of the International Astronomical Union by the
          Minor Planet Center, Smithsonian Astrophysical Observatory,
                          Cambridge, MA 02138, U.S.A.

             Prepared using the Tamkin Foundation Computer Network

                              MPC at CFA.HARVARD.EDU
            URL https://www.minorplanetcenter.net/    ISSN 1523-6714

                                    2020 QV3                                    


Observations:
     K20Q03V* C2020 08 20.17598 20 42 35.49 -11 04 59.2                VEQ149G96
     K20Q03V  C2020 08 20.18220 20 42 37.85 -11 08 03.9          18.9 GVEQ149G96
     K20Q03V  C2020 08 20.19459 20 42 42.45 -11 14 13.9          19.0 GVEQ149G96
     K20Q03V  C2020 08 20.29066 20 43 17.74 -12 01 37.7          19.1 GVEQ149G96
     K20Q03V  C2020 08 20.29117 20 43 17.93 -12 01 52.9          19.4 GVEQ149G96
     K20Q03V  C2020 08 20.29169 20 43 18.13 -12 02 08.0          19.2 GVEQ149G96
     K20Q03V  C2020 08 20.29221 20 43 18.33 -12 02 23.2          18.9 GVEQ149G96
     K20Q03V KC2020 08 20.84707120 47 09.81 -16 17 22.8          19.5 GVEQ149L01
     K20Q03V KC2020 08 20.84940220 47 10.61 -16 18 23.1          19.5 GVEQ149L01
     K20Q03V KC2020 08 20.85173320 47 11.43 -16 19 23.7          19.4 GVEQ149L01
     K20Q03V KC2020 08 20.85328720 47 11.98 -16 20 03.9          19.6 GVEQ149L01
     K20Q03V KC2020 08 20.85496320 47 12.56 -16 20 47.1          19.6 GVEQ149L01
     K20Q03V KC2020 08 20.85813320 47 13.67 -16 22 09.0          19.5 GVEQ149L01
     K20Q03V  C2020 08 20.87252 20 47 18.38 -16 28 25.2                VEQ149246
     K20Q03V  C2020 08 20.87271 20 47 18.46 -16 28 30.7                VEQ149246
     K20Q03V FC2020 08 20.87322 20 47 18.61 -16 28 44.4                VEQ149246
     K20Q03V  C2020 08 20.87334 20 47 18.72 -16 28 48.0                VEQ149246
     K20Q03V FC2020 08 20.87347 20 47 18.77 -16 28 49.7                VEQ149246
     K20Q03V  C2020 08 20.87703 20 47 19.97 -16 30 21.9                VEQ149246
     K20Q03V  C2020 08 20.87716 20 47 19.99 -16 30 25.0                VEQ149246
     K20Q03V  C2020 08 20.87730 20 47 20.09 -16 30 29.2                VEQ149246
     K20Q03V  C2020 08 20.87758 20 47 20.14 -16 30 36.3                VEQ149246
     K20Q03V  C2020 08 20.87772 20 47 20.19 -16 30 39.8                VEQ149246
     K20Q03V  C2020 08 20.87786 20 47 20.27 -16 30 43.1                VEQ149246
     K20Q03V KC2020 08 20.92353 20 47 36.66 -16 50 07.4          19.4 GVEQ149204
     K20Q03V  C2020 08 20.92653 20 47 37.29 -16 51 29.8          20.0 VVEQ149033
     K20Q03V  C2020 08 20.92723 20 47 37.54 -16 51 47.5          20.2 VVEQ149033
     K20Q03V  C2020 08 20.92797 20 47 37.78 -16 52 06.4          19.7 VVEQ149033
     K20Q03V  C2020 08 20.92871 20 47 38.06 -16 52 25.1          19.9 VVEQ149033
     K20Q03V KC2020 08 20.93150 20 47 39.38 -16 53 29.4                VEQ149204
     K20Q03V KC2020 08 20.93946 20 47 42.07 -16 56 51.4                VEQ149204
     K20Q03V KC2020 08 20.96702 20 47 51.08 -17 08 23.9          19.3 GVEQ149104
     K20Q03V KC2020 08 20.97000 20 47 52.06 -17 09 38.3          19.3 GVEQ149104
     K20Q03V KC2020 08 20.97297 20 47 53.12 -17 10 52.9                VEQ149104
     K20Q03V KC2020 08 21.00550720 48 06.01 -17 24 37.3          19.3 GVEQ149J95
     K20Q03V KC2020 08 21.01526220 48 09.35 -17 28 40.4          19.8 GVEQ149J95
     K20Q03V KC2020 08 21.02875220 48 13.96 -17 34 14.1          19.8 GVEQ149J95
     K20Q03V KC2020 08 21.15334 20 49 07.59 -18 24 50.4          19.4 RqEQ149H36
     K20Q03V KC2020 08 21.15678 20 49 08.70 -18 26 14.0          19.2 RqEQ149H36
     K20Q03V KC2020 08 21.15973 20 49 09.64 -18 27 25.7          19.5 RqEQ149H36
     K20Q03V KC2020 08 21.16410 20 49 11.07 -18 29 10.8          19.1 RqEQ149734
     K20Q03V KC2020 08 21.16563 20 49 11.52 -18 29 48.0          19.8 RqEQ149H36
     K20Q03V KC2020 08 21.16755 20 49 12.17 -18 30 34.1          19.6 RqEQ149734
     K20Q03V KC2020 08 21.17099 20 49 13.32 -18 31 57.1          19.0 RqEQ149734
     K20Q03V KC2020 08 21.17442 20 49 14.39 -18 33 19.8          18.7 RqEQ149734
     K20Q03V KC2020 08 21.17785 20 49 15.56 -18 34 42.8          19.7 RqEQ149734
     K20Q03V KC2020 08 21.18133 20 49 16.65 -18 36 07.0          19.6 RqEQ149734
     K20Q03V KC2020 08 21.22206220 49 28.56 -18 52 19.5          19.5 VuEQ149H21
     K20Q03V KC2020 08 21.22596920 49 29.82 -18 53 52.2          19.6 VuEQ149H21
     K20Q03V KC2020 08 21.22936220 49 30.90 -18 55 12.4          19.6 VuEQ149H21

Observer details:
033 Karl Schwarzschild Observatory, Tautenburg.  Observers S. Melnikov, F.
    Ludwig, B. Stecklum.  Measurer B. Stecklum.  1.34-m f/3 Schmidt + CCD.
104 San Marcello Pistoiese.  Observers P. Bacci, M. Maestripieri.  Measurers
    P. Bacci, L. Tesi, G. Fagioli.  0.60-m reflector + CCD.
204 Schiaparelli Observatory.  Observer L. Buzzi.  0.84-m f/3.5 reflector +
    CCD.
246 Klet Observatory-KLENOT.  Observers M. Tichy, J. Ticha.  Measurer M.
    Tichy.  1.06-m f/2.7 reflector + 2048x2048 CCD.
734 Farpoint Observatory, Eskridge.  Observers G. Hug, D. Cromer, D. Goodin.
    Measurer D. Cromer.  0.7-m reflector + CCD.
G96 Mt. Lemmon Survey.  Observer H. Groeller.  Measurers E. J. Christensen, G.
    A. Farneth, D. C. Fuls, A. R. Gibbs, A. D. Grauer, H. Groeller, R. A.
    Kowalski, S. M. Larson, G. J. Leonard, T. A. Pruyne, D. Rankin, R. L.
    Seaman, F. C. Shelly, K. W. Wierzchos.  1.5-m reflector + 10K CCD.
H21 Astronomical Research Observatory, Westfield.  Observer R. Holmes.
    Measurers S. Foglia, L. Buzzi, T. Linder, R. Holmes.  0.81-m f/4.0
    astrograph + CCD.
H36 Sandlot Observatory, Scranton.  Observer G. Hug.  0.56-m reflector + CCD.
J95 Great Shefford.  Observer P. Birtwhistle.  0.41-m f/6.3 Schmidt-Cassegrain
    + CCD.
L01 Visnjan Observatory, Tican.  Observers K. Korlevic, E. Pettarin.  Measurer
    E. Pettarin.  1.0-m f/2.9 reflector + CCD.

Orbital elements:
2020 QV3                                                 Earth MOID = 0.0130 AU
Epoch 2020 May 31.0 TT = JDT 2459000.5                  Bell                    
M 354.08992              (2000.0)            P               Q                  
n   0.81644245     Peri.   81.78598     -0.60537022     +0.76225167             
a   1.1337544      Node   147.23760     -0.78754780     -0.61533174             
e   0.3215836      Incl.   25.04961     +0.11530555     -0.20084630             
P   1.21           H   24.93          G   0.15           U   8                  
Residuals in seconds of arc
200820 G96  0.2-  1.2-    200820 246  0.4+  0.3+    200821 J95  0.2+  0.4+
200820 G96  0.1+  1.0+    200820 246  0.1-  0.3-    200821 J95  0.1+  0.1-
200820 G96 (0.5-  2.5+)   200820 246  0.4-  0.0-    200821 J95  0.3-  0.7+
200820 G96  0.1-  0.2+    200820 246  0.3+  0.6-    200821 H36  0.7+  0.2-
200820 G96  0.0-  0.1-    200820 246  0.3-  0.5-    200821 H36  0.6+  0.4-
200820 G96  0.1+  0.0+    200820 246  0.3-  0.4-    200821 H36  0.3+  0.7-
200820 G96  0.3+  0.0+    200820 246  0.1+  0.1-    200821 734  0.2-  0.1-
200820 L01  0.3-  0.0-    200820 204  0.1-  0.0-    200821 H36  0.3-  0.4-
200820 L01  0.4-  0.1+    200820 033  0.5-  0.3-    200821 734  0.4-  0.1-
200820 L01  0.2-  0.0-    200820 033  0.3-  0.2-    200821 734  0.0+  0.1-
200820 L01  0.0-  0.0+    200820 033  0.5-  0.3-    200821 734  0.5-  0.1-
200820 L01  0.0-  0.3+    200820 033  0.2-  0.2-    200821 734  0.3+  0.5-
200820 L01  0.2+  0.4+    200820 204  0.2+  0.5+    200821 734  0.1-  1.0-
200820 246  0.5-  0.3+    200820 204  0.0+  0.3+    200821 H21  0.1-  0.5+
200820 246  0.3-  0.3-    200820 104  0.0+  0.3+    200821 H21  0.0+  0.5+
200820 246  0.7-  0.9-    200820 104  0.4-  0.8+    200821 H21  0.1-  0.7+
200820 246  0.3+  1.4-    200820 104  0.4+  0.7+

Ephemeris:
2020 QV3                 a,e,i = 1.13, 0.32, 25                  q = 0.7692
Date    TT    R. A. (2000) Decl.     Delta      r    Elong.  Phase     V
2020 07 22    10 52 22.7 +70 23 26   0.2394  0.9035    55.8   111.5    25.9
...
2020 08 06    13 59 53.6 +78 21 16   0.1095  0.9830    70.4   103.6    23.9
...
2020 08 14    19 23 15.2 +55 49 23   0.05026 1.0268   104.6    72.7    21.0
...
2020 08 20    20 41 13.4 -09 33 03   0.05031 1.0596   161.1    18.0    19.5
2020 08 21    20 48 05.7 -17 19 36   0.05607 1.0650   161.6    17.5    19.7
2020 08 22    20 54 04.6 -23 32 25   0.06274 1.0705   159.5    19.3    20.0
...
2020 08 28    21 18 23.2 -42 16 57   0.1118  1.1027   144.1    32.5    21.8
...
2020 09 05    21 36 17.7 -49 49 53   0.1854  1.1446   133.9    39.4    23.1
...
2020 09 20    21 57 11.5 -52 33 33   0.3310  1.2185   123.5    43.4    24.6

M. P. C. Staff               (C) Copyright 2020 MPC           M.P.E.C. 2020-Q149




More information about the Iaude mailing list